GW2041 Weather Reports


time (UTC)temp
F
wind
direction
speed
knots
gust
knots
rain 1hr
in
rain 24hr
in
rain mn
in
humidity
%
barometer
mb
20260506101325 48 0 0.9 1.7 0.00 0.08 0.22 96 1006.1
20260506100326 48 270 0.9 2.6 0.00 0.08 0.22 96 1006.1
20260506095323 48 23 0.9 2.6 0.00 0.08 0.22 96 1006.1
20260506094312 48 315 1.7 3.5 0.00 0.08 0.22 96 1006.1
20260506093749 48 23 1.7 3.5 0.00 0.08 0.22 96 1006.0
20260506092310 48 45 0.9 4.3 0.00 0.08 0.22 96 1006.0
20260506091311 48 0 0.0 3.5 0.00 0.08 0.22 97 1005.8
20260506090313 47 68 0.9 3.5 0.03 0.08 0.22 97 1005.8
20260506085314 47 45 0.9 3.5 0.03 0.08 0.22 96 1005.6
20260506084312 48 68 0.0 3.5 0.03 0.08 0.22 97 1005.6
20260506083258 47 23 0.9 4.3 0.03 0.08 0.22 97 1005.7
20260506082257 47 0 0.0 3.5 0.03 0.08 0.22 97 1005.7
20260506081258 47 23 0.9 3.5 0.03 0.08 0.22 97 1005.3
20260506080256 47 23 0.0 1.7 0.00 0.06 0.19 97 1005.3
20260506073258 46 315 0.0 0.0 0.03 0.06 0.19 97 1005.1
20260506072253 46 68 0.9 3.5 0.03 0.06 0.19 97 1005.1
20260506071249 46 315 0.9 3.5 0.03 0.06 0.19 97 1004.9
20260506070736 46 45 1.7 6.1 0.06 0.06 0.19 97 1004.9
20260506062246 46 45 0.9 2.6 0.03 0.03 0.16 97 1004.8
20260506061246 46 23 0.9 4.3 0.03 0.03 0.16 97 1004.6
20260506060243 46 315 0.9 3.5 0.00 0.00 0.16 97 1004.6
20260506051235 47 23 0.0 2.6 0.00 0.00 0.13 96 1004.4
20260506050714 47 90 0.0 0.0 0.00 0.00 0.13 97 1004.4
20260506044226 47 0 0.0 0.0 0.00 0.00 0.13 96 1004.3
20260506043334 47 0 0.0 0.9 0.03 0.13 0.13 96 1004.6
20260506042330 47 45 0.0 0.0 0.03 0.13 0.13 96 1004.6
20260506041802 47 23 0.0 1.7 0.03 0.13 0.13 96 1004.6
20260506040321 47 23 0.0 1.7 0.00 0.11 0.11 96 1004.6
20260506035315 47 23 0.0 0.0 0.03 0.11 0.11 96 1004.8
20260506034315 47 0 0.0 1.7 0.03 0.11 0.11 96 1004.8
20260506033319 47 315 0.0 1.7 0.03 0.11 0.11 96 1004.9
20260506032750 47 0 0.0 0.0 0.03 0.11 0.11 96 1004.9
20260506031304 47 23 0.0 0.9 0.06 0.11 0.11 96 1005.0
20260506030305 47 45 0.0 0.0 0.06 0.11 0.11 96 1005.0
20260506025305 47 23 0.0 1.7 0.03 0.08 0.08 96 1005.1
20260506024301 47 45 0.0 2.6 0.03 0.08 0.08 96 1005.1
20260506023302 47 338 0.0 2.6 0.03 0.08 0.08 96 1005.4
20260506022305 47 0 0.0 0.9 0.03 0.08 0.08 96 1005.4
20260506020737 48 68 0.0 1.7 0.02 0.05 0.05 95 1005.5
20260506015250 48 338 0.0 1.7 0.05 0.05 0.05 95 1005.7
20260506014721 48 45 0.0 2.6 0.05 0.05 0.05 95 1005.7
20260506013247 48 315 0.0 1.7 0.05 0.05 0.05 95 1005.8
20260506012731 48 68 0.0 3.5 0.05 0.05 0.05 95 1005.8
20260506011247 48 45 0.0 2.6 0.03 0.03 0.03 95 1005.8
20260506010249 48 45 0.0 2.6 0.03 0.03 0.03 94 1005.8
20260506005726 48 23 0.0 1.7 0.00 0.00 0.00 94 1006.2
20260506004248 48 23 0.0 0.0 0.00 0.00 0.00 94 1006.2
20260506003249 48 23 0.0 0.9 0.00 0.00 0.00 94 1006.4
20260506002247 48 23 0.0 0.9 0.00 0.00 0.00 94 1006.4
20260506001247 48 23 0.0 2.6 0.00 0.00 0.00 93 1006.6
20260506000717 48 45 0.0 2.6 0.00 0.00 0.00 93 1006.6
20260505235234 48 113 0.0 1.7 0.00 0.00 0.00 93 1006.9
20260505234234 48 113 0.9 2.6 0.00 0.00 0.00 93 1006.9
20260505233235 48 180 0.0 1.7 0.00 0.00 0.00 93 1007.0
20260505232222 48 135 0.0 1.7 0.00 0.00 0.00 92 1007.0
20260505231707 48 180 0.0 1.7 0.00 0.00 0.00 92 1007.5
20260505230222 48 315 0.0 0.0 0.00 0.00 0.00 92 1007.5
20260505225221 48 315 0.9 1.7 0.00 0.00 0.00 92 1007.8
20260505224709 48 23 0.9 1.7 0.00 0.00 0.00 91 1007.8
20260505223216 48 135 0.0 1.7 0.00 0.00 0.00 91 1007.8
20260505222212 48 90 0.9 4.3 0.00 0.00 0.00 91 1007.8
20260505221208 49 0 0.9 1.7 0.00 0.00 0.00 90 1007.9
20260505220207 49 293 0.9 0.0 0.00 0.00 0.00 89 1007.9
20260505215322 49 23 1.7 6.1 0.00 0.00 0.35 90 1008.1
20260505214320 49 158 0.9 2.6 0.00 0.00 0.35 90 1008.1
20260505213320 49 293 0.9 2.6 0.00 0.00 0.35 89 1008.2
20260505212312 49 68 0.9 2.6 0.00 0.00 0.35 89 1008.2
20260505211308 50 338 0.9 3.5 0.00 0.00 0.35 88 1008.3
20260505210308 50 23 0.9 3.5 0.00 0.00 0.35 88 1008.3
20260505205308 50 23 0.9 1.7 0.00 0.00 0.35 88 1008.3
20260505204309 51 315 0.9 3.5 0.00 0.00 0.35 88 1008.3
20260505202307 51 158 0.0 1.7 0.00 0.00 0.35 88 1008.3
20260505200307 51 225 0.0 2.6 0.00 0.00 0.35 87 1008.2
20260505195306 51 248 0.0 2.6 0.00 0.00 0.35 87 1008.2
20260505193306 51 23 0.0 3.5 0.00 0.00 0.35 87 1008.0
20260505192307 51 293 0.0 0.0 0.00 0.00 0.35 87 1008.0
20260505191745 52 45 0.0 2.6 0.00 0.00 0.35 87 1007.9
20260505190737 51 23 0.0 1.7 0.00 0.00 0.35 87 1007.9
20260505185254 52 23 0.0 1.7 0.00 0.00 0.35 87 1008.0
20260505184735 52 23 0.0 1.7 0.00 0.00 0.35 87 1008.0
20260505183253 52 23 0.0 1.7 0.00 0.00 0.35 88 1008.1
20260505182255 52 23 0.0 1.7 0.00 0.00 0.35 88 1008.1
20260505181253 52 23 0.0 0.0 0.00 0.00 0.35 88 1007.8
20260505180253 52 293 0.0 0.0 0.00 0.00 0.35 88 1007.8
20260505175252 52 315 0.0 1.7 0.00 0.00 0.35 88 1007.8
20260505174239 52 338 0.0 1.7 0.00 0.00 0.35 88 1007.8
20260505172241 53 23 0.0 1.7 0.00 0.00 0.35 88 1008.1
20260505171241 53 270 0.0 0.9 0.00 0.00 0.35 89 1008.0
20260505170239 53 23 0.0 0.0 0.00 0.00 0.35 89 1008.0
20260505165240 52 45 0.0 0.9 0.00 0.00 0.35 89 1008.0
20260505164223 53 45 0.0 0.0 0.00 0.00 0.35 88 1008.0
20260505163212 53 23 0.0 1.7 0.00 0.00 0.35 89 1008.3
20260505162209 53 23 0.0 1.7 0.00 0.00 0.35 89 1008.3
20260505161208 53 23 0.0 0.0 0.00 0.00 0.35 89 1008.2
20260505160222 53 338 0.0 0.0 0.00 0.00 0.35 89 1008.2
20260505153206 53 315 0.9 0.0 0.00 0.00 0.35 89 1008.3
20260505152253 53 338 0.0 1.7 0.00 0.00 0.35 89 1008.3
20260505151255 53 45 0.0 2.6 0.00 0.00 0.35 89 1008.1
20260505150739 53 315 0.9 2.6 0.00 0.00 0.35 89 1008.1
20260505140229 53 23 0.9 5.2 0.00 0.00 0.35 89 1008.3
20260505124221 52 23 0.9 6.1 0.00 0.00 0.35 93 1008.8
20260505123225 51 338 1.7 5.2 0.00 0.00 0.35 93 1008.7
20260505122650 51 45 0.9 3.5 0.00 0.00 0.35 93 1008.7
20260505121214 51 23 1.7 3.5 0.00 0.00 0.35 93 1008.9
20260505120221 51 45 1.7 6.1 0.00 0.00 0.35 93 1008.9
20260505115215 51 315 1.7 4.3 0.00 0.00 0.35 93 1008.9
20260505113219 50 23 0.0 1.7 0.00 0.00 0.35 93 1009.1
20260505112709 50 23 0.9 3.5 0.00 0.00 0.35 94 1009.1
20260505111642 50 23 0.0 0.9 0.00 0.00 0.35 94 1009.0
20260505110208 50 45 0.9 3.5 0.00 0.00 0.35 94 1009.0